Regional Weather Roundup
Issued by NWS

Home | Current Version | Previous Version | Graphics & Text | Print | Product List | Glossary On
Versions: 1 2 3 4 5 6 7 8 9 10 11 12 13 14 15 16 17 18 19 20 21 22 23 24 25 26 27 28 29 30 31 32 33 34 35 36 37 38 39 40 41 42 43 44 45 46 47 48 49 50
000
ASUS45 KPSR 030510
RWRAZ

ARIZONA HOURLY REGIONAL WEATHER ROUNDUP
NATIONAL WEATHER SERVICE PHOENIX AZ
1000 PM MST SUN AUG 02 2015

NOTE: FAIR INDICATES FEW OR NO CLOUDS BELOW 12,000 FEET WITH NO
SIGNIFICANT WEATHER AND/OR OBSTRUCTIONS TO VISIBILITY.

AZZ001>003-036-030600-
NORTHWEST ARIZONA

CITY           SKY/WX    TMP DP  RH WIND       PRES   REMARKS
BULLHEAD CITY  CLEAR    100  45  15 S3        29.70R
KINGMAN        PTCLDY    78  45  30 CALM      29.95R
$$

AZZ004>008-015-016-018-030600-
NORTH CENTRAL ARIZONA

CITY           SKY/WX    TMP DP  RH WIND       PRES   REMARKS
GRAND CANYON   CLEAR     55  51  86 E3        30.21R
WILLIAMS       CLEAR     59  54  82 S8        30.29R
PRESCOTT       CLEAR     76  46  34 W10       30.09R
FLAGSTAFF      CLEAR     56  53  90 CALM      30.25R
PAYSON         PTCLDY    70  54  56 CALM      30.12R
PAGE           PTCLDY    73  56  54 W3        30.05R
$$

AZZ009>014-017-030600-
NORTHEAST ARIZONA

CITY           SKY/WX    TMP DP  RH WIND       PRES   REMARKS
WINSLOW        CLEAR     65  57  75 SW5       30.10S
SAINT JOHNS    PTCLDY    65  53  65 E5        30.18R
SHOW LOW       CLEAR     61  46  59 CALM      30.22S
$$

AZZ023-030600-
GREATER PHOENIX AREA

CITY           SKY/WX    TMP DP  RH WIND       PRES   REMARKS
PHOENIX        PTCLDY    97  54  23 SW6       29.73R
DEER VALLEY    CLEAR     96  48  19 CALM      29.76R
SCOTTSDALE     CLEAR     97  47  18 CALM      29.78R
MESA-GATEWAY   PTCLDY    91  55  29 S3        29.79R
$$

AZZ027-028-030600-
SOUTHWEST MARICOPA COUNTY AND PINAL COUNTY

CITY           SKY/WX    TMP DP  RH WIND       PRES   REMARKS
CASA GRANDE    CLEAR     93  54  26 CALM      29.77S
GILA BEND      FAIR      98  53  22 SW12      29.73R
$$

AZZ503-504-507>509-030600-
SOUTHEAST ARIZONA

CITY           SKY/WX    TMP DP  RH WIND       PRES   REMARKS
TUCSON         CLOUDY    90  59  35 S7        29.91R
DAVIS-MONTHAN  PTCLDY    89  55  32 CALM      29.90R
NOGALES        MOCLDY    75  61  61 E3        30.03R
SIERRA VISTA   MOCLDY    77  55  45 SW10      30.09R
DOUGLAS          N/A    N/A N/A N/A MISG      30.04R
SAFFORD        PTCLDY    79  61  53 W6        29.93R
$$

AZZ020-021-025-026-031-030600-
SOUTHWEST ARIZONA

CITY           SKY/WX    TMP DP  RH WIND       PRES   REMARKS
YUMA           CLEAR     96  49  20 S7        29.70R
$$

CAZ031-033-041-043-047-048-061-030600-
SOUTHERN CALIFORNIA

CITY           SKY/WX    TMP DP  RH WIND       PRES   REMARKS
DOWNTOWN L.A.  CLEAR     70  64  81 CALM      29.85R
L.A. AIRPORT   PTCLDY    70  64  81 SW6       29.86R
SAN DIEGO      MOCLDY    70  63  78 W3        29.89R
BURBANK        CLEAR     74  61  63 SE9       29.86R
ONTARIO        PTCLDY    74  63  68 W9        29.87R
RIVERSIDE      CLEAR     75  63  66 W5        29.87R
PALM SPRINGS   CLEAR     97  56  25 NW12      29.72R
EL CENTRO NAS  CLEAR     94  40  15 W8        29.69R
IMPERIAL       CLEAR     92  45  19 W8        29.67R
BLYTHE         CLEAR    102  45  14 SW8       29.68R
NEEDLES        CLEAR    100  40  12 W10       29.71R
$$

NVZ020-UTZ003-030600-
SOUTHERN NEVADA-UTAH

CITY           SKY/WX    TMP DP  RH WIND       PRES   REMARKS
LAS VEGAS      PTCLDY    95  49  20 E6        29.78R
SALT LAKE CITY CLOUDY    77  49  37 SE13      29.97S
$$

NMZ009-TXZ055-030600-
NEW MEXICO-WEST TEXAS

CITY           SKY/WX    TMP DP  RH WIND       PRES   REMARKS
ALBUQUERQUE    CLOUDY    73  55  53 CALM      30.15R
EL PASO        TSTM      73  66  78 NE12      30.06R
$$


........................KEY........................
SKY/WX - SKY CONDITION/WEATHER
TMP    - TEMPERATURE IN FAHRENHEIT
DP     - DEW POINT IN FAHRENHEIT
RH     - RELATIVE HUMIDITY IN PERCENT
WIND   - DIRECTION AND SPEED IN MILES PER HOUR (MPH)
VRB    - VARIABLE WIND DIRECTION
PRES   - MEAN SEA LEVEL PRESSURE IN INCHES OF MERCURY
         F - FALLING PRESSURE   R - RISING PRESSURE
         S - STEADY PRESSURE
VSB    - VISIBILITY IN MILES
HX     - HEAT INDEX IN FAHRENHEIT
WCI    - WIND CHILL INDEX IN FAHRENHEIT
TC     - TEMPERATURE IN CELSIUS WHICH IS ALSO KNOWN AS
         TEMPERATURE IN CENTIGRADE
AFB    - AIR FORCE BASE
         LUKE AFB IS LUKE AIR FORCE BASE
         DAVIS-MONTHAN IS DAVIS-MONTHAN AIR FORCE BASE
NAS    - NAVAL AIR STATION
         EL CENTRO NAS IS EL CENTRO NAVAL AIR STATION
N/A    - NOT AVAILABLE




USA.gov is the U.S. government's official web portal to all federal, state and local government web resources and services.